| time (UTC) | temp F | wind direction | speed knots | gust knots | rain 1hr in | rain 24hr in | rain mn in | humidity % | barometer mb |
| 20260506024530 | 67 | 38 | 2.6 | 7.8 | 0.00 | 0.00 | 0.00 | 59 | 1014.3 |
| 20260506023029 | 68 | 41 | 1.7 | 6.1 | 0.00 | 0.00 | 0.00 | 57 | 1014.3 |
| 20260506021531 | 70 | 19 | 2.6 | 7.8 | 0.00 | 0.00 | 0.00 | 54 | 1014.1 |
| 20260506020111 | 72 | 14 | 4.3 | 9.6 | 0.00 | 0.00 | 0.00 | 52 | 1013.9 |
| 20260506014531 | 73 | 11 | 2.6 | 6.1 | 0.00 | 0.00 | 0.00 | 50 | 1013.8 |
| 20260506013029 | 75 | 5 | 2.6 | 6.1 | 0.00 | 0.00 | 0.00 | 48 | 1013.7 |
| 20260506011535 | 77 | 325 | 1.7 | 5.2 | 0.00 | 0.00 | 0.00 | 46 | 1013.7 |
| 20260506004533 | 78 | 287 | 3.5 | 7.8 | 0.00 | 0.00 | 0.00 | 46 | 1013.7 |
| 20260506003029 | 78 | 277 | 4.3 | 11.3 | 0.00 | 0.00 | 0.00 | 46 | 1013.7 |
| 20260506000106 | 79 | 325 | 5.2 | 9.6 | 0.00 | 0.00 | 0.00 | 44 | 1013.7 |
| 20260505234539 | 79 | 319 | 4.3 | 10.4 | 0.00 | 0.00 | 0.00 | 45 | 1013.8 |
| 20260505233103 | 80 | 10 | 3.5 | 7.0 | 0.00 | 0.00 | 0.00 | 44 | 1013.8 |
| 20260505230036 | 77 | 61 | 4.3 | 11.3 | 0.00 | 0.00 | 0.00 | 50 | 1013.9 |
| 20260505223030 | 76 | 53 | 5.2 | 11.3 | 0.00 | 0.00 | 0.00 | 50 | 1014.1 |
| 20260505221531 | 77 | 44 | 5.2 | 12.2 | 0.00 | 0.00 | 0.00 | 48 | 1014.3 |
| 20260505220036 | 76 | 23 | 4.3 | 8.7 | 0.00 | 0.00 | 0.00 | 48 | 1014.3 |
| 20260505213033 | 74 | 25 | 4.3 | 11.3 | 0.00 | 0.00 | 0.00 | 51 | 1014.5 |
| 20260505211530 | 74 | 20 | 4.3 | 9.6 | 0.00 | 0.00 | 0.00 | 52 | 1014.6 |
| 20260505210030 | 73 | 30 | 4.3 | 10.4 | 0.00 | 0.00 | 0.00 | 51 | 1014.8 |
| 20260505203033 | 73 | 7 | 3.5 | 7.8 | 0.00 | 0.00 | 0.00 | 50 | 1015.1 |
| 20260505201530 | 74 | 25 | 5.2 | 9.6 | 0.00 | 0.00 | 0.00 | 49 | 1015.1 |
| 20260505200107 | 73 | 19 | 3.5 | 7.8 | 0.00 | 0.00 | 0.00 | 48 | 1015.2 |
| 20260505194530 | 74 | 17 | 4.3 | 9.6 | 0.00 | 0.00 | 0.00 | 47 | 1015.2 |
| 20260505193107 | 74 | 7 | 3.5 | 7.8 | 0.00 | 0.00 | 0.00 | 47 | 1015.3 |
| 20260505191531 | 74 | 27 | 3.5 | 7.0 | 0.00 | 0.00 | 0.00 | 47 | 1015.4 |
| 20260505190030 | 74 | 20 | 3.5 | 7.0 | 0.00 | 0.00 | 0.00 | 47 | 1015.4 |
| 20260505184606 | 73 | 21 | 3.5 | 8.7 | 0.00 | 0.00 | 0.00 | 46 | 1015.5 |
| 20260505183030 | 73 | 346 | 2.6 | 7.0 | 0.00 | 0.00 | 0.00 | 46 | 1015.6 |
| 20260505181531 | 73 | 347 | 2.6 | 7.0 | 0.00 | 0.00 | 0.00 | 47 | 1015.6 |
| 20260505180112 | 73 | 354 | 2.6 | 6.1 | 0.00 | 0.00 | 0.00 | 47 | 1015.5 |
| 20260505174535 | 71 | 317 | 2.6 | 7.0 | 0.00 | 0.00 | 0.00 | 49 | 1015.5 |
| 20260505171531 | 71 | 311 | 2.6 | 7.0 | 0.00 | 0.00 | 0.00 | 49 | 1015.4 |
| 20260505170032 | 71 | 42 | 1.7 | 8.7 | 0.00 | 0.00 | 0.00 | 49 | 1015.4 |
| 20260505164530 | 71 | 40 | 1.7 | 4.3 | 0.00 | 0.00 | 0.00 | 50 | 1015.4 |
| 20260505161537 | 70 | 65 | 0.0 | 1.7 | 0.00 | 0.00 | 0.00 | 54 | 1015.4 |
| 20260505153030 | 66 | 67 | 0.9 | 2.6 | 0.00 | 0.00 | 0.00 | 62 | 1015.4 |
| 20260505151644 | 65 | 66 | 0.9 | 2.6 | 0.00 | 0.00 | 0.00 | 65 | 1015.4 |
| 20260505140156 | 50 | 147 | 0.9 | 2.6 | 0.00 | 0.00 | 0.00 | 92 | 1015.2 |
| 20260505124530 | 44 | 161 | 0.9 | 3.5 | 0.00 | 0.00 | 0.00 | 93 | 1014.5 |
| 20260505123031 | 45 | 153 | 0.9 | 3.5 | 0.00 | 0.00 | 0.00 | 92 | 1014.5 |
| 20260505120030 | 45 | 157 | 0.0 | 2.6 | 0.00 | 0.00 | 0.00 | 91 | 1014.3 |
| 20260505113029 | 45 | 156 | 0.9 | 2.6 | 0.00 | 0.00 | 0.00 | 90 | 1014.3 |
| 20260505111534 | 46 | 156 | 0.9 | 2.6 | 0.00 | 0.00 | 0.00 | 89 | 1014.2 |
| 20260505100107 | 49 | 174 | 0.9 | 3.5 | 0.00 | 0.00 | 0.00 | 83 | 1013.9 |
| 20260505094530 | 51 | 179 | 1.7 | 3.5 | 0.00 | 0.00 | 0.00 | 82 | 1013.8 |
| 20260505091604 | 53 | 173 | 2.6 | 5.2 | 0.00 | 0.00 | 0.00 | 77 | 1013.7 |
| 20260505090030 | 54 | 16 | 0.9 | 2.6 | 0.00 | 0.00 | 0.00 | 75 | 1013.6 |
| 20260505084537 | 57 | 137 | 1.7 | 5.2 | 0.00 | 0.00 | 0.00 | 74 | 1013.6 |
| 20260505083030 | 56 | 203 | 3.5 | 7.0 | 0.00 | 0.00 | 0.00 | 75 | 1013.6 |
| 20260505081529 | 58 | 181 | 2.6 | 6.1 | 0.00 | 0.00 | 0.00 | 73 | 1013.6 |
| 20260505080031 | 59 | 167 | 2.6 | 12.2 | 0.00 | 0.00 | 0.00 | 73 | 1013.6 |
| 20260505073031 | 60 | 242 | 3.5 | 10.4 | 0.00 | 0.00 | 0.00 | 73 | 1013.4 |
| 20260505071532 | 60 | 246 | 3.5 | 7.8 | 0.00 | 0.00 | 0.00 | 74 | 1013.4 |
| 20260505070031 | 60 | 216 | 3.5 | 8.7 | 0.00 | 0.00 | 0.00 | 74 | 1013.3 |
| 20260505064532 | 59 | 204 | 2.6 | 7.0 | 0.00 | 0.00 | 0.00 | 73 | 1013.2 |
| 20260505063028 | 61 | 184 | 2.6 | 4.3 | 0.00 | 0.00 | 0.00 | 71 | 1013.3 |
| 20260505061534 | 61 | 232 | 2.6 | 10.4 | 0.00 | 0.00 | 0.00 | 71 | 1013.3 |
| 20260505060031 | 61 | 215 | 3.5 | 7.8 | 0.00 | 0.00 | 0.00 | 71 | 1013.3 |
| 20260505054530 | 60 | 218 | 3.5 | 10.4 | 0.00 | 0.00 | 0.00 | 72 | 1013.4 |
| 20260505053106 | 59 | 213 | 3.5 | 9.6 | 0.00 | 0.00 | 0.00 | 71 | 1013.2 |
| 20260505051528 | 59 | 180 | 0.9 | 4.3 | 0.00 | 0.00 | 0.00 | 69 | 1013.2 |
| 20260505040042 | 63 | 226 | 3.5 | 8.7 | 0.00 | 0.00 | 0.00 | 57 | 1012.4 |
| 20260505034530 | 64 | 228 | 2.6 | 7.8 | 0.00 | 0.00 | 0.00 | 54 | 1012.2 |
| 20260505033030 | 64 | 228 | 2.6 | 8.7 | 0.00 | 0.00 | 0.00 | 52 | 1011.9 |
| 20260505031531 | 65 | 211 | 3.5 | 10.4 | 0.00 | 0.00 | 0.00 | 51 | 1011.7 |
| 20260505030032 | 67 | 226 | 2.6 | 7.8 | 0.00 | 0.00 | 0.00 | 49 | 1011.5 |